Location: Blachownia
(50.7807°N, 18.9578°E)
Time: 04:58:07
(UTC+01:00)

ISS - Visible Passes

Search period start: 24 November 2017 00:00
Search period end: 04 December 2017 00:00
Orbit: 402 x 407 km, 51.6° (Epoch: 24 November)

Date Brightness Start Highest point End Pass type
(mag) Time Alt. Az. Time Alt. Az. Time Alt. Az.
28 Nov -1.3 18:16:53 10° SSW 18:17:50 16° SSW 18:17:50 16° SSW visible
29 Nov -2.0 17:25:14 10° S 17:27:32 18° SE 17:27:45 18° SE visible
29 Nov -0.4 19:00:20 10° WSW 19:00:25 11° WSW 19:00:25 11° WSW visible
30 Nov -1.4 16:34:21 10° SSE 16:35:25 11° SE 16:36:29 10° ESE visible
30 Nov -2.4 18:08:06 10° SW 18:10:15 33° SSW 18:10:15 33° SSW visible
01 Dec -2.7 17:16:02 10° SSW 17:18:59 31° SSE 17:20:01 25° ESE visible
01 Dec -0.7 18:51:58 10° WSW 18:52:40 15° WSW 18:52:40 15° WSW visible
02 Dec -2.0 16:24:12 10° SSW 16:26:45 21° SE 16:29:17 10° E visible
02 Dec -3.4 17:59:35 10° WSW 18:02:23 59° SW 18:02:23 59° SW visible
03 Dec -3.4 17:07:16 10° SW 17:10:29 53° SSE 17:12:04 26° E visible
03 Dec -1.0 18:43:38 10° W 18:44:42 19° W 18:44:42 19° W visible
